Volver al catálogo

FGN-100-D2

ActivoCienciaVLEO
NORAD 66299·PAYLOAD·🇹🇷 Turkey

Lanzado Nov 2, 2025 desde Cape Canaveral Space Force Station

Loading…

Próximos Pases (próximas 24 horas)

TLE

ActualizadoSource: Space-Track

Época: Sep 14, 2026, 13:21 UTC

1 66299U 25248G   26257.55683468  .00004253  00000-0  20029-3 0  9990
2 66299  45.4018   1.6889 0004851 204.4546 155.6111 15.21106805 48125

Sigue FGN-100-D2 en tiempo real con AllMySat

Download on the App Store